OBJECT D, 59808

Orbit data source: Space-Track

You're viewing an Uncataloged Satellite

Recently launched and/or uncataloged satellites may have evolving metadata. Metadata may include but not limited to: Owner, Maufacturer, Bus, Motor, and Mission.

OBJECT D, 59808 is a satellite owned by 21AT (CN) in SSO that was launched on Mon, 20 May 2024 UTC via a CHANG ZHENG 2D launch vehicle from the Taiyaun Space Center, China (TSC). Unknown objects in Earth's orbit typically refer to objects detected orbiting the Earth but have not yet been identified or cataloged. These objects could be anything from previously untracked satellites, spent rocket stages, debris from satellite collisions, or even natural meteoroids temporarily captured by Earth's gravity.

Loading next visibility...
Identifier
59808, 2024-094D
Orbit
SSO
Country
Flag of CNCN / PRC
Related business
Manufacturer
DFH
Mission
Operational Commercial Imaging
Bus & Motor
BJ3C, Unknown motor
Mass
~1,000 kg wet, ~1,000 kg dry
Launch date (UTC)
2024-05-20 (2 years ago)
Launch vehicle
CHANG ZHENG 2D
Launch site
Taiyaun Space Center, China (TSC)
Object type
Unknown
Shape & HBR
Hex Cyl + 3 Pan, 2.5 m
Radar Cross Section
2.703 m², Large (>1 m²)

Expand to show TLE details & history
Last TLE update: 22 hours ago

TLE from 22 hours ago
0 OBJECT D
1 59808U 24094D   26172.53204394  .00004919  00000-0  25209-3 0  9991
2 59808  97.3839 243.0114 0003213 186.0682 174.0513 15.17021700115817
Epoch: 2026-06-21T12:46Z
TLE epoch observation values (Epoch: 2026-06-21T12:46:08.596Z)
Latitude
-0.00004°
Longitude
141.74462°
Altitude
520.138 km
Speed
7.602 km/s
True Right ascension
16h 12m 02s
True Declination
0° 00' 00"
Sunlit
Object was in full shadow at epoch
Visualization orbit readout
Latitude
Unknown
Longitude
Unknown
Altitude
Unknown
Speed
Unknown
Apparent Right ascension
Unknown
Apparent Declination
Unknown
Sunlit
N/A
Visualization observer readout
Local Sidereal Time
21:28:26
Azimuth
Unknown
Elevation
Unknown
Doppler factor
Unknown
Orbital elements
Apogee altitude
514.03 km
Perigee altitude
509.603 km
Semi-major axis
6,889.954 km
Eccentricity
0.00032
Inclination
97.3839°
RAAN
243.0114°
Arg. of periapsis
186.0682°
True anomaly
174.05511°
Mean anomaly
174.0513°
Eccentric anomaly
174.05321°
Mean motion
3.79506 °/min
Orbital period
94.86 mins
BSTAR
0.00025209
Loading maneuver chart data...
Computing Atmospheric mass density...
Loading historical data...
Loading historical data...
Loading historical data...
Loading historical data...
Loading historical data...
Loading historical data...
Loading historical data...
Other satellites on launch #94 in the year 2024 (2024-05-20 UTC)

Documentation

Showing up to 5 results
|